Regional Weather Roundup
Issued by NWS Sterling, VA

Home | Current Version | Previous Version | Text Only | Print | Product List | Glossary Off
Versions: 1 2 3 4 5 6 7 8 9 10 11 12 13 14 15 16 17 18 19 20 21 22 23 24 25 26 27 28 29 30 31 32 33 34 35 36 37 38 39 40 41 42 43 44 45 46 47 48 49 50

000
ASUS41 KLWX 210411
RWRLWX

REGIONAL WEATHER ROUNDUP
NATIONAL WEATHER SERVICE BALTIMORE MD/WASHINGTON DC
1100 PM EST MON FEB 20 2017

Note: "FAIR" indicates few or no clouds below 12,000 feet
with no significant weather and/or obstructions to visibility.
 TC=TEMPERATURE CELSIUS

 * =Non NWS site. Station does not report precipitation (e.g. rain,
    snow, etc.), thunder, or fog.

DCZ001-MDZ009-015-VAZ040>042-051-053>054-210500-
WASHINGTON METRO

CITY           SKY/WX    TMP DP  RH WIND       PRES   REMARKS
WASHINGTON NAT PTCLDY    50  30  46 NE8       30.30R
DULLES         CLOUDY    46  28  49 CALM      30.30R
ANDREWS AFB    PTCLDY    48  27  44 NE9       30.28S
FT BELVOIR     PTCLDY    44  31  61 CALM      30.30R
QUANTICO       PTCLDY    45  38  76 NW5       30.32R
COLLEGE PARK*  CLEAR     46  28  49 NE3       30.30S
LEESBURG*      CLOUDY    50  34  53 MISG      30.31S
MANASSAS*      PTCLDY    40  33  76 CALM      30.31R
GAITHERSBURG*  PTCLDY    46  23  39 CALM      30.34R

$$

MDZ006>007-011-014-210500-
BALTIMORE METRO

CITY           SKY/WX    TMP DP  RH WIND       PRES   REMARKS
BWI AIRPORT    PTCLDY    48  27  44 NE7       30.31R
MD SCIENCE CTR   N/A     51  24  34 MISG      30.32R
ANNAPOLIS      CLEAR     51  27  39 NE8       30.31R
FORT MEADE*    CLEAR     43  28  56 E5        30.33S

$$

MDZ012-015-019>023-210500-
MARYLAND EASTERN SHORE

CITY           SKY/WX    TMP DP  RH WIND       PRES   REMARKS
OCEAN CITY     CLEAR     37  33  85 CALM      30.31R
SALISBURY      CLEAR     36  33  89 CALM      30.30R
BAY BRIDGE AP* CLEAR     48  28  46 NE6       30.33R
EASTON*        CLEAR     43  29  57 E6        30.35R

$$

MDZ017>025-210500-
SOUTHERN MARYLAND

CITY           SKY/WX    TMP DP  RH WIND       PRES   REMARKS
PATUXENT RIVER CLEAR     40  34  79 CALM      30.29R
ST INIGOES     CLEAR     40  33  76 NE3       30.28S
LEONARDTOWN*   CLEAR     45  32  61 CALM      30.31R

$$

MDZ003>005-210500-
NORTH CENTRAL MARYLAND

CITY           SKY/WX    TMP DP  RH WIND       PRES   REMARKS
FREDERICK*     CLOUDY    36  32  87 CALM      30.34R
HAGERSTOWN APT CLOUDY    45  30  55 N3        30.29R
WESTMINSTER*   CLOUDY    46  25  42 E6        30.30S

$$

MDZ501>502-210500-
WESTERN MARYLAND

CITY           SKY/WX    TMP DP  RH WIND       PRES   REMARKS
OAKLAND*       PTCLDY    43  28  56 SE15G21   30.22S
CUMBERLAND*    MOCLDY    46  32  57 CALM      30.29F

$$

VAZ025>031-210500-
SHENANDOAH VALLEY

CITY           SKY/WX    TMP DP  RH WIND       PRES   REMARKS
WINCHESTER*    CLOUDY    41  30  65 CALM      30.29R
FRONT ROYAL*   CLOUDY    52  32  46 NE6       30.27S
LURAY*         PTCLDY    48  37  66 N3        30.26R
NEW MARKET*    PTCLDY    48  31  52 CALM      30.25R
STAUNTON*      PTCLDY    41  34  76 CALM      30.27S
WAYNESBORO*    PTCLDY    53  34  48 S6        30.25S

$$

WVZ021-048>050-054>055-210500-
EASTERN WEST VIRGINIA PANHANDLE

CITY           SKY/WX    TMP DP  RH WIND       PRES   REMARKS
MARTINSBURG    CLOUDY    42  30  62 CALM      30.29R
PETERSBURG*    PTCLDY    42  38  86 CALM      30.26R

$$

VAZ036>039-050-210500-
CENTRAL FOOTHILLS

CITY           SKY/WX    TMP DP  RH WIND       PRES   REMARKS
CHARLOTTESVILL CLOUDY    55  36  48 E5        30.28R
CULPEPER*      CLOUDY    43  35  73 CALM      30.31R
ORANGE*        PTCLDY    43  34  70 CALM      30.30S
GORDONSVILLE*  CLOUDY    43  37  78 CALM      30.28S
WARRENTON*     PTCLDY    46  30  54 E5        30.29S

$$

VAZ055>057-210500-
NORTH AND CENTRAL PIEDMONT

CITY           SKY/WX    TMP DP  RH WIND       PRES   REMARKS
FREDERICKSBRG* CLOUDY    46  36  68 CALM      30.30R
STAFFORD*      MOCLDY    42  32  68 CALM      30.35R

$$

NCZ024-NYZ072-PAZ021-071-VAZ022-071-210500-
OTHER REGIONAL OBSERVATIONS

CITY           SKY/WX    TMP DP  RH WIND       PRES   REMARKS
NEW YORK CITY  CLEAR     41  15  35 NE9       30.37R
PHILADELPHIA   PTCLDY    44  12  27 NE10      30.35R
PITTSBURGH     CLOUDY    48  31  51 E6        30.17F
ROANOKE        MOCLDY    57  34  41 CALM      30.24R
RICHMOND       CLOUDY    50  37  61 NE3       30.28R
RALEIGH        MOCLDY    52  40  63 CALM      30.22S

$$

ANZ530>537-210500-
MARINE OBSERVATIONS

STATION/POSITION TIME  TEMP    WIND        PRES
                       AIR SEA DIR/SP/G
                 (UTC) (F)     (DEG/KT/KT) (MB)
THOMAS PT LIGHT  0400   51 43   50/ 14/ 14   N/A
BALT KEY BRIDGE  0348   50      50/ 12/ 14 1026.4R
COVE POINT       0348   49      20/  4/  5 1026.5R
LEWISETTA        0348   46 46   70/  6/  7 1025.1S
SOLOMONS ISLAND  0348   44 44   10/  1/  2   N/A
PINEY POINT      0342           80/  5/  6   N/A

$$




USA.gov is the U.S. government's official web portal to all federal, state and local government web resources and services.